Weather History for PAMR - October, 2014

Change the Weather History Date:

Monday, October 20, 2014

  Actual Average Record
Temperature  
Mean Temperature 36 °F -  
Max Temperature 39 °F 36 °F 53 °F (2013)
Min Temperature 33 °F 24 °F 5 °F (1996)
Degree Days  
Heating Degree Days 29    
Moisture  
Dew Point 32 °F    
Average Humidity 90    
Maximum Humidity 96    
Minimum Humidity 76    
Precipitation  
Precipitation 0.17 in - - ()
Sea Level Pressure  
Sea Level Pressure 29.03 in    
Wind  
Wind Speed 1 mph (NE)    
Max Wind Speed 6 mph    
Max Gust Speed -    
Visibility 5 miles    
Events Rain , Snow    
Averages and records for this station are not official NWS values.
T = Trace of Precipitation, MM = Missing Value Source: NWS Daily Summary

Daily Weather History Graph

Daily Weather History Graph

Search for Another Location

Airport or City:

Trip Planner

Search our weather history database for the weather conditions in past years. The results will help you decide how hot, cold, wet, or windy it might be!

Date:

Astronomy

Oct. 20, 2014 Rise Set
Actual Time 8:55 AM AKDT 6:31 PM AKDT
Civil Twilight 8:10 AM AKDT 7:16 PM AKDT
Nautical Twilight 7:20 AM AKDT 8:06 PM AKDT
Astronomical Twilight 6:30 AM AKDT 8:56 PM AKDT
Moon 5:05 AM AKDT (10/20) 5:39 PM AKDT (10/20)
Length of Visible Light 11h 05m
Length of Day
9h 36m
Waning Crescent, 9% of the Moon is Illuminated
Oct 20
Waning Crescent
Oct 23
New
Oct 30
First Quarter
Nov 6
Full
Nov 14
Last Quarter

Hourly Weather History & Observations

Time (AKDT) Temp. Windchill Dew Point Humidity Pressure Visibility Wind Dir Wind Speed Gust Speed Precip Events Conditions
12:53 AM 34.0 °F 31.0 °F 32.0 °F 92% 29.01 in 6.0 mi South 3.5 mph - 0.01 in Snow Light Snow
1:49 AM 33.8 °F 30.8 °F 32.0 °F 93% 29.01 in 6.0 mi South 3.5 mph - 0.00 in Snow Light Snow
1:53 AM 34.0 °F 31.0 °F 32.0 °F 92% 29.01 in 6.0 mi South 3.5 mph - 0.00 in Snow Light Snow
2:53 AM 33.1 °F - 30.9 °F 92% 29.00 in 3.0 mi Calm Calm - 0.01 in Snow Light Snow
3:53 AM 33.1 °F - 30.9 °F 92% 28.98 in 3.0 mi Calm Calm - 0.03 in Snow Light Snow
4:39 AM 33.1 °F - 30.9 °F 92% 28.97 in 2.0 mi Calm Calm - 0.01 in Snow Light Snow
4:53 AM 33.1 °F 30.0 °F 30.9 °F 92% 28.97 in 2.0 mi SSW 3.5 mph - 0.01 in Snow Light Snow
5:53 AM 33.1 °F - 32.0 °F 96% 28.96 in 2.0 mi Calm Calm - 0.00 in Snow Light Snow
6:44 AM 33.1 °F - 30.9 °F 92% 28.95 in 5.0 mi Calm Calm - 0.01 in Snow Light Snow
6:53 AM 33.1 °F - 30.9 °F 92% 28.95 in 5.0 mi Calm Calm - 0.01 in Snow Light Snow
7:30 AM 33.1 °F - 30.9 °F 92% 28.95 in 3.0 mi Calm Calm - 0.01 in Snow Light Snow
7:46 AM 33.1 °F - 30.9 °F 92% 28.95 in 3.0 mi Calm Calm - 0.01 in Snow Light Snow
7:53 AM 33.1 °F - 30.9 °F 92% 28.96 in 3.0 mi Calm Calm - 0.02 in Snow Light Snow
8:16 AM 33.1 °F - 30.9 °F 92% 28.95 in 1.5 mi Calm Calm - 0.01 in Snow Light Snow
8:53 AM 33.1 °F - 30.9 °F 92% 28.96 in 1.5 mi Calm Calm - 0.03 in Snow Light Snow
9:01 AM 33.1 °F - 30.9 °F 92% 28.95 in 1.2 mi Calm Calm - 0.00 in Snow Light Snow
9:24 AM 33.1 °F - 30.9 °F 92% 28.95 in 1.8 mi Calm Calm - 0.01 in Snow Light Snow
9:53 AM 33.1 °F - 32.0 °F 96% 28.97 in 0.8 mi Calm Calm - 0.02 in Snow Light Snow
10:10 AM 33.1 °F - 30.9 °F 92% 28.96 in 1.0 mi Calm Calm - 0.01 in Snow Light Snow
10:53 AM 33.1 °F - 30.9 °F 92% 28.98 in 1.2 mi Calm Calm - 0.02 in Snow Light Snow
11:01 AM 33.1 °F - 30.9 °F 92% 28.97 in 2.0 mi Calm Calm - 0.00 in Snow Light Snow
11:53 AM 34.0 °F - 32.0 °F 92% 29.00 in 2.0 mi Calm Calm - 0.00 in Snow Light Snow
11:55 AM 34.0 °F - 32.0 °F 92% 28.99 in 3.0 mi Calm Calm - 0.00 in Snow Light Snow
12:07 PM 34.0 °F - 32.0 °F 92% 28.99 in 4.0 mi Calm Calm - 0.00 in Snow Light Snow
12:14 PM 34.0 °F - 32.0 °F 92% 29.00 in 5.0 mi Calm Calm - 0.00 in   Overcast
12:53 PM 35.1 °F - 32.0 °F 89% 29.02 in 8.0 mi Calm Calm - 0.00 in   Overcast
1:53 PM 37.0 °F - 34.0 °F 89% 29.04 in 8.0 mi Calm Calm - 0.01 in   Mostly Cloudy
1:58 PM 36.0 °F - 33.1 °F 89% 29.04 in 8.0 mi Calm Calm - N/A   Overcast
2:05 PM 36.0 °F - 33.1 °F 89% 29.04 in 8.0 mi Calm Calm - N/A   Mostly Cloudy
2:53 PM 37.0 °F - 32.0 °F 82% 29.07 in 10.0 mi Calm Calm - N/A   Overcast
3:53 PM 39.0 °F - 33.1 °F 79% 29.09 in 10.0 mi Calm Calm - N/A   Mostly Cloudy
4:53 PM 39.0 °F - 32.0 °F 76% 29.11 in 10.0 mi Calm Calm - N/A   Mostly Cloudy
5:53 PM 39.0 °F 35.7 °F 33.1 °F 79% 29.13 in 10.0 mi NNE 4.6 mph - N/A   Mostly Cloudy
6:53 PM 37.0 °F 33.3 °F 33.1 °F 86% 29.15 in 10.0 mi ENE 4.6 mph - N/A   Overcast
7:53 PM 37.0 °F 34.5 °F 33.1 °F 86% 29.16 in 10.0 mi NNE 3.5 mph - N/A   Mostly Cloudy
8:53 PM 36.0 °F 33.3 °F 33.1 °F 89% 29.18 in 10.0 mi North 3.5 mph - N/A   Mostly Cloudy
9:53 PM 37.0 °F 32.4 °F 33.1 °F 86% 29.18 in 10.0 mi NNE 5.8 mph - N/A   Overcast
10:53 PM 36.0 °F 32.1 °F 33.1 °F 89% 29.20 in 10.0 mi NNW 4.6 mph - N/A   Overcast
11:53 PM 36.0 °F - 32.0 °F 86% 29.23 in 10.0 mi Calm Calm - 0.00 in Rain Light Rain